Regional Weather Roundup
Issued by NWS

Current Version | Previous Version | Text Only | Print | Product List | Glossary Off
Versions: 1 2 3 4 5 6 7 8 9 10 11 12 13 14 15 16 17 18 19 20 21 22 23 24 25 26 27
000 ASUS45 KREV 222310 RWRNV NEVADA REGIONAL WEATHER ROUNDUP NATIONAL WEATHER SERVICE RENO NV 400 PM PDT SUN MAY 22 2022 NOTE: "FAIR" INDICATES FEW OR NO CLOUDS BELOW 12,000 FEET WITH NO SIGNIFICANT WEATHER AND/OR OBSTRUCTIONS TO VISIBILITY. NVZ001-003-004-230000- WESTERN NEVADA CITY SKY/WX TMP DP RH WIND PRES REMARKS RENO MOSUNNY 77 24 14 NE14G22 30.04F CARSON CITY FAIR 75 19 12 VRB7G14 30.07S MINDEN FAIR 75 19 12 NW7 30.06S SLIDE MTN N/A 54 32 43 NW2 N/A PYRAMID LAKE N/A 72 N/A N/A E6 N/A FALLON MOSUNNY 76 11 8 NW10G18 30.03F LOVELOCK MOSUNNY 74 14 10 W17G24 30.05F HAWTHORNE SUNNY 77 16 10 N20G28 30.01F $$ NVZ002-CAZ072-073-230000- NORTHERN AND CENTRAL SIERRA CITY SKY/WX TMP DP RH WIND PRES REMARKS S. LAKE TAHOE SUNNY 66 21 18 SW9 30.14F TRUCKEE SUNNY 68 25 19 W9G17 30.14F BLUE CANYON SUNNY 66 30 26 W8 30.16S SUSANVILLE FAIR 75 28 17 NE5 30.06F MAMMOTH LAKES FAIR 72 23 16 W20G26 30.14R BRIDGEPORT N/A 72 25 17 N8 N/A $$ NVZ030-031-036-230000- NORTHERN NEVADA CITY SKY/WX TMP DP RH WIND PRES REMARKS ELKO MOSUNNY 67 19 16 NW16G28 30.09R WINNEMUCCA SUNNY 69 25 19 N15G29 30.11S BATTLE MOUNTAI CLEAR 70 19 14 N13G26 30.10F WENDOVER N/A N/A N/A N/A MISG N/A $$ NVZ035-037-230000- CENTRAL NEVADA CITY SKY/WX TMP DP RH WIND PRES REMARKS ELY MOSUNNY 69 9 9 NW17G32 30.03S EUREKA N/A 68 7 9 NW20G30 30.06S $$ NVZ013-014-230000- SOUTH CENTRAL NEVADA CITY SKY/WX TMP DP RH WIND PRES REMARKS TONOPAH SUNNY 75 11 8 NW14G29 30.04F $$ NVZ017-020-022-230000- SOUTHERN NEVADA CITY SKY/WX TMP DP RH WIND PRES REMARKS LAS VEGAS MOSUNNY 92 20 7 SW6G21 29.82F N. LAS VEGAS SUNNY 93 21 7 N6 29.81F NELLIS AFB SUNNY 96 18 6 W5 29.78F HENDERSON MOSUNNY 92 22 8 SW7G18 29.85F MERCURY SUNNY 86 10 6 SW15G30 29.89F $$

USA.gov is the U.S. government's official web portal to all federal, state and local government web resources and services.